Location: Baia Mare
(47.6567°N, 23.5850°E)
Time: 16:55:53
(UTC+03:00)

ISS - Pass Details

Date: 07 July 2018
Orbit: 402 x 408 km, 51.6° (Epoch: 23 July)

Event Time Altitude Azimuth Distance (km) Brightness Sun altitude
Exits shadow 03:21:05 16° 144° (SE) 1,151 -1.8 -15.5°
Maximum altitude 03:21:25 16° 137° (SE) 1,143 -1.8 -15.4°
Drops below altitude 10° 03:23:34 10° 96° (E) 1,471 -0.7 -15.3°
Sets 03:26:11 0° 74° (ENE) 2,337 0.7 -15.1°
